Flag for Poland Weather past 2 weeks in Katowice, Poland

Now
88 °F

Sunny.


Feels Like: 85 °F
Forecast: 60 / 92 °F
Wind: 6 mph from North

Location: Katowice Airport

Current Time: Jul 4, 2015 at 3:51:53 PM

Latest Report: Jul 4, 2015 at 3:30 PM


Visibility: 10 mi

Pressure: 30.18 "Hg

Humidity: 29%

Dew point: 52 °F

Location of KatowiceLocation

Historic Weather in Katowice — Graph

°F

Katowice temperature yesterday

Maximum temperature yesterday: 82 °F (at 1:30 PM)
Minimum temperature yesterday: 52 °F (at 1:00 AM)
Average temperature yesterday: 70 °F

Past Weeks' High & Low Weather Summary

 TemperatureHumidityPressure
High88 °F (Jul 4, 2:30 PM)100% (Jun 20, 10:00 PM)30.39 "Hg (Jun 20, 10:00 PM)
Low39 °F (Jun 20, 4:30 AM)29% (Jul 4, 1:30 PM)29.74 "Hg (Jun 23, 3:30 AM)
Average60 °F74%30.09 "Hg
* Reported Jun 19 2:00 PM — Jul 4 2:30 PM, Katowice, Weather by CustomWeather, © 2015

Note: Actual official high and low records may vary slightly from our data, if they occured in-between our weather recording intervals... More about our weather records

Advertising

Katowice weather history for previous 24 hours

 ConditionsComfort  
Time TempWeatherWind HumidityBarometerVisibility
2:30 PM
Sat, Jul 4
88 °FPassing clouds.12 mph31%30.21 "HgN/A
2:00 PM86 °FSunny.7 mph33%30.21 "Hg10 mi
1:30 PM86 °FSunny.5 mph29%30.21 "Hg10 mi
1:00 PM84 °FSunny.6 mph35%30.21 "Hg10 mi
12:30 PM84 °FPassing clouds.7 mph35%30.24 "HgN/A
12:00 PM84 °FPassing clouds.7 mph35%30.24 "HgN/A
11:30 AM82 °FPassing clouds.8 mph42%30.24 "HgN/A
11:00 AM82 °FSunny.7 mph42%30.24 "Hg10 mi
10:30 AM81 °FSunny.6 mph45%30.27 "Hg10 mi
10:00 AM79 °FPassing clouds.6 mph48%30.27 "HgN/A
9:30 AM79 °FPassing clouds.7 mph48%30.27 "HgN/A
9:00 AM75 °FPassing clouds.6 mph54%30.27 "HgN/A
8:30 AM73 °FPassing clouds.6 mph57%30.27 "HgN/A
8:00 AM72 °FPassing clouds.3 mph57%30.27 "HgN/A
7:30 AM70 °FSunny.5 mph57%30.27 "Hg10 mi
7:00 AM66 °FPassing clouds.3 mph64%30.30 "HgN/A
6:30 AM63 °FSunny.2 mph73%30.27 "Hg10 mi
6:00 AM57 °FSunny.3 mph82%30.30 "Hg10 mi
5:30 AM55 °FClear.5 mph88%30.30 "Hg10 mi
5:00 AM54 °FClear.2 mph88%30.30 "Hg10 mi
4:30 AM54 °FClear.2 mph88%30.30 "Hg10 mi
4:00 AM55 °FClear.3 mph82%30.30 "Hg10 mi
3:30 AM59 °FClear.5 mph77%30.30 "Hg10 mi
3:00 AM59 °FClear.7 mph77%30.30 "Hg10 mi
2:30 AM59 °FClear.7 mph77%30.30 "Hg10 mi
2:00 AM57 °FClear.2 mph82%30.33 "Hg10 mi
1:30 AM57 °FClear.2 mph82%30.33 "Hg10 mi
1:00 AM59 °FClear.5 mph77%30.33 "Hg10 mi
12:30 AM59 °FClear.5 mph77%30.33 "Hg10 mi
12:00 AM63 °FClear.8 mph68%30.33 "Hg10 mi
11:30 PM
Fri, Jul 3
63 °FClear.7 mph73%30.33 "Hg10 mi
11:00 PM63 °FClear.7 mph73%30.33 "Hg10 mi
10:30 PM64 °FClear.7 mph68%30.33 "Hg10 mi
10:00 PM68 °FClear.6 mph60%30.33 "Hg10 mi
9:30 PM68 °FSunny.6 mph60%30.33 "Hg10 mi
9:00 PM70 °FSunny.8 mph57%30.33 "Hg10 mi
8:30 PM73 °FSunny.8 mph47%30.33 "Hg10 mi
8:00 PM77 °FSunny.10 mph42%30.33 "Hg10 mi
7:30 PM79 °FSunny.10 mph37%30.33 "Hg10 mi
7:00 PM81 °FSunny.12 mph34%30.33 "Hg10 mi
6:30 PM81 °FSunny.13 mph34%30.33 "Hg10 mi
6:00 PM82 °FSunny.13 mph32%30.33 "Hg10 mi
5:30 PM81 °FPassing clouds.10 mph34%30.33 "HgN/A
5:00 PM82 °FPassing clouds.10 mph32%30.33 "HgN/A
4:30 PM82 °FPassing clouds.10 mph32%30.33 "HgN/A
4:00 PM82 °FPassing clouds.7 mph32%30.36 "HgN/A
3:30 PM82 °FPassing clouds.10 mph32%30.36 "HgN/A
3:00 PM81 °FPassing clouds.12 mph34%30.36 "HgN/A
Weather by CustomWeather, © 2015

See weather overviewHow to use our weather pages